When you browse on this site, cookies collect data to enhance your experience and personalize the content and advertising you see.
Visit our Privacy Policy to learn more. By continuing to use the site, you agree to this use of cookies and data.

Stündliche Wetter Juayùa

Heute, 26 September, Samstag

Zeit Temperatur Niederschläge Wind Luftdruck Luftfeuchtigkeit
00:00 +19°C° 0.4 mm 2 m/S 668 mmHg 95%
01:00 +19°C° 0.2 mm 2 m/S 667 mmHg 95%
02:00 +19°C° 0.2 mm 2 m/S 667 mmHg 95%
03:00 +19°C° 0.2 mm 2 m/S 666 mmHg 95%
04:00 +18°C° 0 mm 2 m/S 666 mmHg 94%
05:00 +18°C° 0 mm 2 m/S 666 mmHg 94%
06:00 +19°C° 0 mm 1 m/S 666 mmHg 94%
07:00 +21°C° 0 mm 1 m/S 667 mmHg 89%
08:00 +22°C° 0 mm 1 m/S 668 mmHg 83%
09:00 +24°C° 0 mm 1 m/S 668 mmHg 78%
10:00 +25°C° 0 mm 1 m/S 668 mmHg 74%
11:00 +26°C° 0 mm 1 m/S 668 mmHg 71%
12:00 +27°C° 0 mm 2 m/S 668 mmHg 67%
13:00 +26°C° 0.9 mm 1 m/S 667 mmHg 73%
14:00 +25°C° 0.9 mm 1 m/S 666 mmHg 79%
15:00 +24°C° 0.9 mm 1 m/S 665 mmHg 85%
16:00 +23°C° 0.7 mm 1 m/S 665 mmHg 88%
17:00 +22°C° 0.7 mm 1 m/S 665 mmHg 91%
18:00 +21°C° 0.7 mm 1 m/S 665 mmHg 94%
19:00 +21°C° 0.4 mm 1 m/S 666 mmHg 94%
20:00 +18°C° 0.4 mm 0 m/S 666 mmHg 95%
21:00 +18°C° 0.4 mm 0 m/S 666 mmHg 96%
22:00 +18°C° 0.2 mm 0 m/S 666 mmHg 95%
23:00 +20°C° 0.2 mm 1 m/S 666 mmHg 95%

Morgen, 27 September, Sonntag

Zeit Temperatur Niederschläge Wind Luftdruck Luftfeuchtigkeit
00:00 +19°C° 0.2 mm 1 m/S 666 mmHg 95%
01:00 +19°C° 0.2 mm 1 m/S 666 mmHg 95%
02:00 +19°C° 0.2 mm 1 m/S 665 mmHg 94%
03:00 +19°C° 0.2 mm 1 m/S 665 mmHg 94%
04:00 +19°C° 0 mm 1 m/S 665 mmHg 94%
05:00 +19°C° 0 mm 1 m/S 665 mmHg 93%
06:00 +19°C° 0 mm 1 m/S 665 mmHg 93%
07:00 +21°C° 0 mm 1 m/S 666 mmHg 87%
08:00 +23°C° 0 mm 1 m/S 667 mmHg 80%
09:00 +25°C° 0 mm 1 m/S 668 mmHg 74%
10:00 +26°C° 0.2 mm 1 m/S 667 mmHg 72%
11:00 +26°C° 0.2 mm 1 m/S 667 mmHg 70%
12:00 +27°C° 0.2 mm 1 m/S 667 mmHg 69%
13:00 +26°C° 0.7 mm 1 m/S 666 mmHg 73%
14:00 +26°C° 0.7 mm 1 m/S 665 mmHg 77%
15:00 +25°C° 0.7 mm 1 m/S 665 mmHg 80%
16:00 +24°C° 0.2 mm 1 m/S 665 mmHg 85%
17:00 +23°C° 0.2 mm 1 m/S 664 mmHg 90%
18:00 +21°C° 0.2 mm 1 m/S 664 mmHg 95%
19:00 +21°C° 0.5 mm 1 m/S 665 mmHg 95%
20:00 +21°C° 0.5 mm 1 m/S 665 mmHg 96%
21:00 +20°C° 0.5 mm 1 m/S 666 mmHg 97%
22:00 +20°C° 0.3 mm 1 m/S 666 mmHg 97%
23:00 +20°C° 0.3 mm 1 m/S 665 mmHg 96%

übermorgen, 28 September, Montag

Zeit Temperatur Niederschläge Wind Luftdruck Luftfeuchtigkeit
00:00 +20°C° 0.3 mm 1 m/S 665 mmHg 96%
01:00 +20°C° 0.6 mm 1 m/S 665 mmHg 96%
02:00 +19°C° 0.6 mm 1 m/S 664 mmHg 96%
03:00 +19°C° 0.6 mm 1 m/S 664 mmHg 96%
04:00 +19°C° 0 mm 1 m/S 664 mmHg 96%
05:00 +19°C° 0 mm 1 m/S 664 mmHg 95%
06:00 +18°C° 0 mm 1 m/S 664 mmHg 94%
07:00 +21°C° 0 mm 1 m/S 665 mmHg 87%
08:00 +23°C° 0 mm 1 m/S 666 mmHg 80%
09:00 +25°C° 0 mm 1 m/S 667 mmHg 73%
10:00 +25°C° 0.3 mm 1 m/S 666 mmHg 73%
11:00 +26°C° 0.3 mm 1 m/S 666 mmHg 73%
12:00 +26°C° 0.3 mm 1 m/S 666 mmHg 73%
13:00 +26°C° 0.8 mm 1 m/S 665 mmHg 75%
14:00 +26°C° 0.8 mm 1 m/S 665 mmHg 76%
15:00 +25°C° 0.8 mm 1 m/S 664 mmHg 77%
16:00 +24°C° 0.4 mm 1 m/S 664 mmHg 83%
17:00 +22°C° 0.4 mm 1 m/S 664 mmHg 89%
18:00 +19°C° 0.4 mm 0 m/S 664 mmHg 94%
19:00 +19°C° 1.3 mm 0 m/S 664 mmHg 95%
20:00 +18°C° 1.3 mm 0 m/S 665 mmHg 95%
21:00 +18°C° 1.3 mm 0 m/S 665 mmHg 95%
22:00 +20°C° 0.6 mm 1 m/S 665 mmHg 96%
23:00 +19°C° 0.6 mm 1 m/S 665 mmHg 96%

29 September, Dienstag

Zeit Temperatur Niederschläge Wind Luftdruck Luftfeuchtigkeit
00:00 +19°C° 0.6 mm 1 m/S 665 mmHg 96%
01:00 +19°C° 0.4 mm 1 m/S 665 mmHg 96%
02:00 +19°C° 0.4 mm 1 m/S 665 mmHg 96%
03:00 +19°C° 0.4 mm 1 m/S 664 mmHg 95%
04:00 +19°C° 0.1 mm 1 m/S 664 mmHg 95%
05:00 +19°C° 0.1 mm 1 m/S 665 mmHg 94%
06:00 +18°C° 0.1 mm 1 m/S 665 mmHg 94%
07:00 +21°C° 0 mm 1 m/S 665 mmHg 86%
08:00 +23°C° 0 mm 1 m/S 666 mmHg 78%
09:00 +25°C° 0 mm 1 m/S 667 mmHg 70%
10:00 +25°C° 0.8 mm 1 m/S 667 mmHg 74%
11:00 +25°C° 0.8 mm 1 m/S 666 mmHg 77%
12:00 +25°C° 0.8 mm 1 m/S 666 mmHg 80%
13:00 +25°C° 1 mm 1 m/S 665 mmHg 80%
14:00 +25°C° 1 mm 1 m/S 665 mmHg 80%
15:00 +25°C° 1 mm 1 m/S 664 mmHg 80%
16:00 +23°C° 0.3 mm 1 m/S 664 mmHg 85%
17:00 +22°C° 0.3 mm 1 m/S 664 mmHg 90%
18:00 +21°C° 0.3 mm 1 m/S 665 mmHg 95%
19:00 +21°C° 1.5 mm 1 m/S 665 mmHg 95%
20:00 +21°C° 1.5 mm 1 m/S 666 mmHg 95%
21:00 +20°C° 1.5 mm 1 m/S 666 mmHg 95%
22:00 +20°C° 1.9 mm 1 m/S 666 mmHg 95%
23:00 +20°C° 1.9 mm 1 m/S 666 mmHg 95%

30 September, Mittwoch

Zeit Temperatur Niederschläge Wind Luftdruck Luftfeuchtigkeit
00:00 +19°C° 1.9 mm 1 m/S 666 mmHg 95%
01:00 +19°C° 1.7 mm 1 m/S 665 mmHg 95%
02:00 +19°C° 1.7 mm 1 m/S 665 mmHg 96%
03:00 +19°C° 1.7 mm 1 m/S 665 mmHg 97%
04:00 +19°C° 0.3 mm 1 m/S 665 mmHg 96%
05:00 +19°C° 0.3 mm 1 m/S 666 mmHg 96%
06:00 +19°C° 0.3 mm 1 m/S 666 mmHg 96%
07:00 +20°C° 0 mm 1 m/S 666 mmHg 89%
08:00 +22°C° 0 mm 1 m/S 667 mmHg 82%
09:00 +24°C° 0 mm 2 m/S 667 mmHg 75%
10:00 +25°C° 0 mm 2 m/S 667 mmHg 70%
11:00 +26°C° 0 mm 1 m/S 667 mmHg 65%
12:00 +28°C° 0 mm 1 m/S 667 mmHg 60%
13:00 +27°C° 1.2 mm 1 m/S 666 mmHg 68%
14:00 +26°C° 1.2 mm 1 m/S 665 mmHg 76%
15:00 +25°C° 1.2 mm 1 m/S 665 mmHg 85%
16:00 +23°C° 1 mm 1 m/S 665 mmHg 87%
17:00 +22°C° 1 mm 1 m/S 665 mmHg 90%
18:00 +21°C° 1 mm 1 m/S 665 mmHg 93%
19:00 +20°C° 0.6 mm 1 m/S 665 mmHg 93%
20:00 +20°C° 0.6 mm 1 m/S 666 mmHg 93%
21:00 +20°C° 0.6 mm 1 m/S 666 mmHg 94%
22:00 +20°C° 0.4 mm 1 m/S 666 mmHg 93%
23:00 +19°C° 0.4 mm 1 m/S 666 mmHg 93%

1 Oktober, Donnerstag

Zeit Temperatur Niederschläge Wind Luftdruck Luftfeuchtigkeit
00:00 +19°C° 0.4 mm 1 m/S 665 mmHg 93%
01:00 +19°C° 0.1 mm 1 m/S 665 mmHg 92%
02:00 +19°C° 0.1 mm 1 m/S 665 mmHg 92%
03:00 +19°C° 0.1 mm 1 m/S 665 mmHg 91%
04:00 +19°C° 0 mm 1 m/S 665 mmHg 91%
05:00 +19°C° 0 mm 1 m/S 665 mmHg 91%
06:00 +19°C° 0 mm 1 m/S 665 mmHg 90%
07:00 +21°C° 0 mm 1 m/S 666 mmHg 84%
08:00 +23°C° 0 mm 1 m/S 666 mmHg 77%
09:00 +24°C° 0 mm 1 m/S 667 mmHg 70%
10:00 +25°C° 0.2 mm 1 m/S 667 mmHg 70%
11:00 +26°C° 0.2 mm 2 m/S 667 mmHg 70%
12:00 +26°C° 0.2 mm 2 m/S 666 mmHg 69%
13:00 +26°C° 1.3 mm 1 m/S 666 mmHg 75%
14:00 +25°C° 1.3 mm 1 m/S 665 mmHg 80%
15:00 +24°C° 1.3 mm 1 m/S 664 mmHg 86%
16:00 +23°C° 1.1 mm 1 m/S 664 mmHg 88%
17:00 +22°C° 1.1 mm 1 m/S 664 mmHg 91%
18:00 +21°C° 1.1 mm 1 m/S 665 mmHg 93%
19:00 +21°C° 0.8 mm 1 m/S 665 mmHg 93%
20:00 +20°C° 0.8 mm 1 m/S 665 mmHg 92%
21:00 +20°C° 0.8 mm 1 m/S 666 mmHg 92%
22:00 +20°C° 0.4 mm 1 m/S 666 mmHg 92%
23:00 +20°C° 0.4 mm 1 m/S 665 mmHg 93%
Mehr zeigen